Previsão horária em Aberin

Hoje, 18 Maio, Terça-feira

Tempo Temperatura Precipitação Vento Pressão Humidade
00:00 +8°C° 0 mm 1 m/s 718 mmHg 78%
01:00 +8°C° 0 mm 1 m/s 718 mmHg 76%
02:00 +8°C° 0 mm 1 m/s 718 mmHg 74%
03:00 +8°C° 0 mm 1 m/s 717 mmHg 71%
04:00 +8°C° 0 mm 0 m/s 717 mmHg 70%
05:00 +9°C° 0 mm 0 m/s 717 mmHg 68%
06:00 +9°C° 0 mm 0 m/s 717 mmHg 67%
07:00 +11°C° 0 mm 0 m/s 717 mmHg 63%
08:00 +14°C° 0 mm 1 m/s 717 mmHg 59%
09:00 +16°C° 0 mm 1 m/s 718 mmHg 55%
10:00 +18°C° 0 mm 1 m/s 717 mmHg 55%
11:00 +19°C° 0 mm 1 m/s 717 mmHg 55%
12:00 +19°C° 0 mm 2 m/s 717 mmHg 55%
13:00 +18°C° 0.1 mm 3 m/s 717 mmHg 60%
14:00 +17°C° 0.1 mm 3 m/s 717 mmHg 65%
15:00 +17°C° 0.1 mm 4 m/s 717 mmHg 69%
16:00 +15°C° 0 mm 4 m/s 718 mmHg 71%
17:00 +14°C° 0 mm 3 m/s 718 mmHg 72%
18:00 +13°C° 0 mm 3 m/s 719 mmHg 74%
19:00 +12°C° 0 mm 3 m/s 719 mmHg 78%
20:00 +11°C° 0 mm 3 m/s 720 mmHg 82%
21:00 +10°C° 0 mm 3 m/s 721 mmHg 86%
22:00 +9°C° 0 mm 3 m/s 721 mmHg 86%
23:00 +9°C° 0 mm 2 m/s 721 mmHg 86%

Amanhã, 19 Maio, Quarta-feira

Tempo Temperatura Precipitação Vento Pressão Humidade
00:00 +9°C° 0 mm 2 m/s 721 mmHg 86%
01:00 +9°C° 0 mm 2 m/s 721 mmHg 85%
02:00 +9°C° 0 mm 3 m/s 721 mmHg 84%
03:00 +9°C° 0 mm 3 m/s 721 mmHg 82%
04:00 +9°C° 0 mm 2 m/s 721 mmHg 81%
05:00 +9°C° 0 mm 2 m/s 722 mmHg 81%
06:00 +9°C° 0 mm 2 m/s 722 mmHg 80%
07:00 +10°C° 0 mm 3 m/s 722 mmHg 76%
08:00 +11°C° 0 mm 3 m/s 723 mmHg 72%
09:00 +12°C° 0 mm 4 m/s 723 mmHg 68%
10:00 +13°C° 0 mm 4 m/s 723 mmHg 60%
11:00 +14°C° 0 mm 5 m/s 723 mmHg 52%
12:00 +16°C° 0 mm 5 m/s 723 mmHg 44%
13:00 +16°C° 0 mm 5 m/s 723 mmHg 44%
14:00 +16°C° 0 mm 6 m/s 723 mmHg 45%
15:00 +16°C° 0 mm 6 m/s 723 mmHg 45%
16:00 +15°C° 0 mm 6 m/s 723 mmHg 49%
17:00 +14°C° 0 mm 5 m/s 723 mmHg 52%
18:00 +12°C° 0 mm 5 m/s 723 mmHg 55%
19:00 +11°C° 0 mm 4 m/s 723 mmHg 64%
20:00 +9°C° 0 mm 3 m/s 724 mmHg 73%
21:00 +7°C° 0 mm 2 m/s 724 mmHg 81%
22:00 +6°C° 0 mm 2 m/s 724 mmHg 83%
23:00 +6°C° 0 mm 2 m/s 724 mmHg 85%

Depois de amanhã, 20 Maio, Quinta-feira

Tempo Temperatura Precipitação Vento Pressão Humidade
00:00 +6°C° 0 mm 2 m/s 724 mmHg 87%
01:00 +5°C° 0 mm 2 m/s 723 mmHg 87%
02:00 +5°C° 0 mm 2 m/s 723 mmHg 86%
03:00 +5°C° 0 mm 2 m/s 723 mmHg 86%
04:00 +6°C° 0 mm 2 m/s 723 mmHg 83%
05:00 +6°C° 0 mm 2 m/s 723 mmHg 80%
06:00 +7°C° 0 mm 2 m/s 723 mmHg 77%
07:00 +9°C° 0 mm 2 m/s 723 mmHg 65%
08:00 +13°C° 0 mm 2 m/s 723 mmHg 52%
09:00 +15°C° 0 mm 2 m/s 723 mmHg 40%
10:00 +17°C° 0 mm 2 m/s 723 mmHg 37%
11:00 +18°C° 0 mm 2 m/s 722 mmHg 34%
12:00 +20°C° 0 mm 2 m/s 722 mmHg 31%
13:00 +21°C° 0 mm 2 m/s 722 mmHg 32%
14:00 +21°C° 0 mm 2 m/s 721 mmHg 33%
15:00 +23°C° 0 mm 2 m/s 721 mmHg 34%
16:00 +21°C° 0 mm 2 m/s 720 mmHg 40%
17:00 +21°C° 0 mm 2 m/s 720 mmHg 46%
18:00 +20°C° 0 mm 2 m/s 720 mmHg 52%
19:00 +19°C° 0 mm 1 m/s 720 mmHg 55%
20:00 +16°C° 0 mm 1 m/s 720 mmHg 58%
21:00 +14°C° 0 mm 1 m/s 720 mmHg 61%
22:00 +14°C° 0 mm 1 m/s 719 mmHg 61%
23:00 +14°C° 0 mm 1 m/s 719 mmHg 62%

21 Maio, Sexta-feira

Tempo Temperatura Precipitação Vento Pressão Humidade
00:00 +13°C° 0 mm 1 m/s 719 mmHg 63%
01:00 +13°C° 0 mm 1 m/s 718 mmHg 64%
02:00 +12°C° 0 mm 1 m/s 718 mmHg 64%
03:00 +12°C° 0 mm 1 m/s 718 mmHg 65%
04:00 +12°C° 0 mm 1 m/s 718 mmHg 66%
05:00 +13°C° 0 mm 1 m/s 718 mmHg 67%
06:00 +13°C° 0 mm 1 m/s 718 mmHg 68%
07:00 +15°C° 0 mm 2 m/s 718 mmHg 64%
08:00 +16°C° 0 mm 2 m/s 718 mmHg 61%
09:00 +18°C° 0 mm 2 m/s 718 mmHg 57%
10:00 +20°C° 0 mm 2 m/s 718 mmHg 53%
11:00 +21°C° 0 mm 2 m/s 718 mmHg 50%
12:00 +24°C° 0 mm 2 m/s 717 mmHg 46%
13:00 +24°C° 0 mm 3 m/s 717 mmHg 49%
14:00 +22°C° 0 mm 3 m/s 717 mmHg 51%
15:00 +22°C° 0 mm 3 m/s 716 mmHg 54%
16:00 +20°C° 0 mm 4 m/s 717 mmHg 61%
17:00 +16°C° 0 mm 5 m/s 717 mmHg 69%
18:00 +13°C° 0 mm 5 m/s 717 mmHg 77%
19:00 +12°C° 0 mm 5 m/s 717 mmHg 76%
20:00 +11°C° 0 mm 4 m/s 718 mmHg 75%
21:00 +10°C° 0 mm 3 m/s 718 mmHg 74%
22:00 +10°C° 0 mm 3 m/s 718 mmHg 72%
23:00 +10°C° 0 mm 3 m/s 719 mmHg 70%

22 Maio, Sábado

Tempo Temperatura Precipitação Vento Pressão Humidade
00:00 +10°C° 0 mm 3 m/s 719 mmHg 68%
01:00 +9°C° 0 mm 2 m/s 718 mmHg 71%
02:00 +9°C° 0 mm 2 m/s 718 mmHg 73%
03:00 +8°C° 0 mm 2 m/s 718 mmHg 75%
04:00 +8°C° 0 mm 2 m/s 718 mmHg 75%
05:00 +9°C° 0 mm 2 m/s 719 mmHg 75%
06:00 +10°C° 0 mm 1 m/s 719 mmHg 75%
07:00 +10°C° 0 mm 2 m/s 719 mmHg 67%
08:00 +12°C° 0 mm 2 m/s 719 mmHg 59%
09:00 +12°C° 0 mm 3 m/s 719 mmHg 52%
10:00 +14°C° 0 mm 3 m/s 719 mmHg 48%
11:00 +16°C° 0 mm 3 m/s 719 mmHg 44%
12:00 +17°C° 0 mm 3 m/s 719 mmHg 40%
13:00 +17°C° 0 mm 4 m/s 718 mmHg 41%
14:00 +18°C° 0 mm 4 m/s 718 mmHg 41%
15:00 +17°C° 0 mm 5 m/s 718 mmHg 42%
16:00 +15°C° 0 mm 5 m/s 718 mmHg 50%
17:00 +14°C° 0 mm 5 m/s 718 mmHg 58%
18:00 +11°C° 0 mm 6 m/s 718 mmHg 66%
19:00 +11°C° 0 mm 4 m/s 719 mmHg 68%
20:00 +10°C° 0 mm 3 m/s 719 mmHg 70%
21:00 +10°C° 0 mm 2 m/s 720 mmHg 72%
22:00 +10°C° 0 mm 2 m/s 720 mmHg 73%
23:00 +9°C° 0 mm 2 m/s 720 mmHg 74%

23 Maio, Domingo

Tempo Temperatura Precipitação Vento Pressão Humidade
00:00 +9°C° 0 mm 2 m/s 720 mmHg 75%
01:00 +9°C° 0 mm 2 m/s 720 mmHg 76%
02:00 +9°C° 0 mm 2 m/s 720 mmHg 77%
03:00 +9°C° 0 mm 2 m/s 720 mmHg 78%
04:00 +9°C° 0 mm 2 m/s 720 mmHg 78%
05:00 +9°C° 0 mm 2 m/s 720 mmHg 79%
06:00 +8°C° 0 mm 2 m/s 721 mmHg 79%
07:00 +9°C° 0 mm 3 m/s 721 mmHg 73%
08:00 +10°C° 0 mm 4 m/s 721 mmHg 67%
09:00 +11°C° 0 mm 4 m/s 722 mmHg 61%
10:00 +12°C° 0 mm 5 m/s 722 mmHg 57%
11:00 +13°C° 0 mm 5 m/s 722 mmHg 53%
12:00 +14°C° 0 mm 5 m/s 722 mmHg 50%
13:00 +14°C° 0 mm 5 m/s 722 mmHg 50%
14:00 +14°C° 0 mm 5 m/s 722 mmHg 50%
15:00 +14°C° 0 mm 5 m/s 722 mmHg 50%
16:00 +14°C° 0 mm 5 m/s 722 mmHg 53%
17:00 +13°C° 0 mm 5 m/s 721 mmHg 56%
18:00 +12°C° 0 mm 5 m/s 721 mmHg 58%
19:00 +10°C° 0 mm 4 m/s 722 mmHg 66%
20:00 +8°C° 0 mm 3 m/s 722 mmHg 74%
21:00 +7°C° 0 mm 2 m/s 722 mmHg 82%
22:00 +6°C° 0 mm 2 m/s 722 mmHg 84%
23:00 +6°C° 0 mm 2 m/s 722 mmHg 86%
Mostrar mais

Necessitamos do seu Consentimento

A Meteoprog e os seus Fornecedores de Serviços podem armazenar e aceder a dados pessoais como cookies, identificadores do dispositivo ou outras tecnologias semelhantes existentes no seu dispositivo e processar estes dados para personalizar conteúdos e anúncios, assim como funcionalidades nas redes sociais e análise de tráfego.

  • Armazenar e/ou aceder a informações no seu dispositivo

    Os cookies, identificadores do dispositivo ou outras informações podem ser armazenados ou acedidos no seu dispositivo, para os fins acima indicados.

  • Anúncios e conteúdos personalizados, medição de anúncios e conteúdos, dados sobre o público-alvo e desenvolvimento de produtos

    Os anúncios e os conteúdos podem ser personalizados com base num perfil. Podem ser adicionados dados adicionais para uma maior personalização dos anúncios e dos conteúdos. A eficácia dos anúncios e dos conteúdos pode ser medida. Podem ser obtidas informações sobre o público que visualizou os anúncios e os conteúdos. Estes dados podem ser usados para desenvolver ou melhorar sistemas, softwares ou a experiência do utilizador.

Ao clicar em "Eu concordo”, permitirá o uso de cookies, identificadores do dispositivo e web beacons mencionados ou outras tecnologias semelhantes. As configurações do navegador do seu dispositivo podem ser alteradas.

Para certos fins, podem ser invocados interesses legítimos ao invés de consentimento. Pode ler mais informação sobre este assunto na nossa Política de Privacidade e Cookies.